Location: Unspecified
(35.7250°N, 0.0000°E)
Time: 17:45:48
(UTC+00:00)

Courier 1B Rocket - Pass Details

Date: 26 June 2019
Orbit: 920 x 1202 km, 28.3° (Epoch: 22 August)

Event Time Altitude Azimuth Distance (km) Brightness Sun altitude
Exits shadow 03:29:53 17° 236° (SW) 2,448 6.4 -13.3°
Maximum altitude 03:35:00 43° 173° (S) 1,442 5.7 -12.5°
Drops below altitude 10° 03:41:20 10° 104° (ESE) 2,772 7.9 -11.5°
Sets 03:44:03 0° 98° (E) 3,683 8.7 -11.1°
